EN

Hourly Weather La Bouille

Today, 25 July, Sunday

Time Temperature Precipitation Wind Pressure Humidity
00:00 +17°C° 0.5 mm 3 mps 745 mmHg 96%
01:00 +16°C° 0.3 mm 3 mps 745 mmHg 96%
02:00 +16°C° 0.3 mm 3 mps 744 mmHg 95%
03:00 +16°C° 0.3 mm 3 mps 744 mmHg 95%
04:00 +16°C° 0.1 mm 3 mps 744 mmHg 94%
05:00 +16°C° 0.1 mm 3 mps 744 mmHg 94%
06:00 +16°C° 0.1 mm 3 mps 744 mmHg 93%
07:00 +17°C° 0.1 mm 3 mps 744 mmHg 92%
08:00 +17°C° 0.1 mm 3 mps 744 mmHg 90%
09:00 +18°C° 0.1 mm 4 mps 744 mmHg 88%
10:00 +19°C° 0.3 mm 3 mps 744 mmHg 84%
11:00 +19°C° 0.3 mm 3 mps 744 mmHg 79%
12:00 +20°C° 0.3 mm 3 mps 744 mmHg 75%
13:00 +20°C° 0.9 mm 3 mps 744 mmHg 76%
14:00 +20°C° 0.9 mm 3 mps 744 mmHg 78%
15:00 +20°C° 0.9 mm 3 mps 744 mmHg 79%
16:00 +20°C° 0.6 mm 3 mps 745 mmHg 81%
17:00 +19°C° 0.6 mm 3 mps 745 mmHg 84%
18:00 +19°C° 0.6 mm 4 mps 745 mmHg 86%
19:00 +18°C° 0.1 mm 3 mps 746 mmHg 90%
20:00 +16°C° 0.1 mm 3 mps 746 mmHg 93%
21:00 +14°C° 0.1 mm 3 mps 746 mmHg 97%
22:00 +14°C° 0 mm 3 mps 747 mmHg 98%
23:00 +15°C° 0 mm 2 mps 747 mmHg 98%

Tomorrow, 26 July, Monday

Time Temperature Precipitation Wind Pressure Humidity
00:00 +15°C° 0 mm 2 mps 747 mmHg 98%
01:00 +14°C° 0 mm 3 mps 747 mmHg 98%
02:00 +14°C° 0 mm 3 mps 747 mmHg 98%
03:00 +14°C° 0 mm 3 mps 747 mmHg 98%
04:00 +14°C° 0 mm 3 mps 747 mmHg 98%
05:00 +16°C° 0 mm 3 mps 748 mmHg 97%
06:00 +16°C° 0 mm 3 mps 748 mmHg 96%
07:00 +17°C° 0 mm 4 mps 748 mmHg 90%
08:00 +19°C° 0 mm 4 mps 748 mmHg 84%
09:00 +20°C° 0 mm 4 mps 748 mmHg 78%
10:00 +21°C° 0.7 mm 4 mps 748 mmHg 75%
11:00 +22°C° 0.7 mm 4 mps 748 mmHg 73%
12:00 +22°C° 0.7 mm 4 mps 748 mmHg 70%
13:00 +23°C° 0.6 mm 4 mps 748 mmHg 68%
14:00 +23°C° 0.6 mm 4 mps 748 mmHg 66%
15:00 +23°C° 0.6 mm 4 mps 748 mmHg 65%
16:00 +22°C° 0.4 mm 3 mps 748 mmHg 68%
17:00 +22°C° 0.4 mm 3 mps 748 mmHg 70%
18:00 +21°C° 0.4 mm 3 mps 749 mmHg 73%
19:00 +19°C° 0 mm 2 mps 749 mmHg 76%
20:00 +18°C° 0 mm 2 mps 749 mmHg 79%
21:00 +16°C° 0 mm 1 mps 749 mmHg 82%
22:00 +16°C° 0 mm 1 mps 749 mmHg 83%
23:00 +16°C° 0 mm 1 mps 749 mmHg 84%

Day after tomorrow, 27 July, Tuesday

Time Temperature Precipitation Wind Pressure Humidity
00:00 +16°C° 0 mm 1 mps 749 mmHg 84%
01:00 +16°C° 0 mm 2 mps 749 mmHg 86%
02:00 +15°C° 0 mm 2 mps 748 mmHg 88%
03:00 +15°C° 0 mm 2 mps 748 mmHg 90%
04:00 +15°C° 0 mm 2 mps 748 mmHg 89%
05:00 +15°C° 0 mm 2 mps 748 mmHg 88%
06:00 +16°C° 0 mm 2 mps 749 mmHg 87%
07:00 +17°C° 0.1 mm 2 mps 748 mmHg 84%
08:00 +18°C° 0.1 mm 3 mps 748 mmHg 80%
09:00 +19°C° 0.1 mm 4 mps 748 mmHg 77%
10:00 +19°C° 0.6 mm 4 mps 748 mmHg 76%
11:00 +19°C° 0.6 mm 5 mps 748 mmHg 75%
12:00 +20°C° 0.6 mm 5 mps 748 mmHg 75%
13:00 +20°C° 0.3 mm 5 mps 748 mmHg 72%
14:00 +21°C° 0.3 mm 6 mps 748 mmHg 69%
15:00 +21°C° 0.3 mm 6 mps 748 mmHg 67%
16:00 +21°C° 0.5 mm 5 mps 748 mmHg 72%
17:00 +20°C° 0.5 mm 5 mps 747 mmHg 78%
18:00 +19°C° 0.5 mm 5 mps 747 mmHg 83%
19:00 +18°C° 0.1 mm 4 mps 748 mmHg 87%
20:00 +17°C° 0.1 mm 4 mps 748 mmHg 91%
21:00 +15°C° 0.1 mm 4 mps 748 mmHg 94%
22:00 +15°C° 0 mm 4 mps 748 mmHg 95%
23:00 +14°C° 0 mm 5 mps 748 mmHg 95%

28 July, Wednesday

Time Temperature Precipitation Wind Pressure Humidity
00:00 +14°C° 0 mm 5 mps 749 mmHg 96%
01:00 +14°C° 0 mm 5 mps 749 mmHg 96%
02:00 +14°C° 0 mm 4 mps 749 mmHg 95%
03:00 +14°C° 0 mm 4 mps 749 mmHg 95%
04:00 +14°C° 0 mm 4 mps 749 mmHg 94%
05:00 +14°C° 0 mm 4 mps 749 mmHg 93%
06:00 +13°C° 0 mm 4 mps 750 mmHg 93%
07:00 +15°C° 0 mm 4 mps 750 mmHg 84%
08:00 +16°C° 0 mm 5 mps 750 mmHg 76%
09:00 +19°C° 0 mm 5 mps 750 mmHg 67%
10:00 +19°C° 0.1 mm 5 mps 750 mmHg 64%
11:00 +20°C° 0.1 mm 5 mps 750 mmHg 60%
12:00 +21°C° 0.1 mm 4 mps 750 mmHg 57%
13:00 +21°C° 0 mm 5 mps 750 mmHg 53%
14:00 +22°C° 0 mm 5 mps 750 mmHg 50%
15:00 +23°C° 0 mm 5 mps 750 mmHg 46%
16:00 +22°C° 0 mm 4 mps 749 mmHg 53%
17:00 +21°C° 0 mm 3 mps 749 mmHg 59%
18:00 +20°C° 0 mm 2 mps 749 mmHg 65%
19:00 +18°C° 0 mm 2 mps 749 mmHg 71%
20:00 +17°C° 0 mm 2 mps 749 mmHg 77%
21:00 +15°C° 0 mm 2 mps 749 mmHg 82%
22:00 +15°C° 0 mm 2 mps 749 mmHg 85%
23:00 +13°C° 0 mm 3 mps 749 mmHg 87%

29 July, Thursday

Time Temperature Precipitation Wind Pressure Humidity
00:00 +13°C° 0 mm 3 mps 749 mmHg 90%
01:00 +13°C° 0 mm 3 mps 748 mmHg 91%
02:00 +12°C° 0 mm 3 mps 748 mmHg 93%
03:00 +12°C° 0 mm 3 mps 748 mmHg 95%
04:00 +12°C° 0 mm 4 mps 748 mmHg 94%
05:00 +13°C° 0 mm 4 mps 748 mmHg 93%
06:00 +14°C° 0 mm 4 mps 748 mmHg 92%
07:00 +15°C° 0 mm 5 mps 748 mmHg 85%
08:00 +17°C° 0 mm 6 mps 747 mmHg 78%
09:00 +18°C° 0 mm 7 mps 747 mmHg 71%
10:00 +20°C° 0.3 mm 7 mps 747 mmHg 72%
11:00 +20°C° 0.3 mm 7 mps 747 mmHg 73%
12:00 +20°C° 0.3 mm 8 mps 747 mmHg 75%
13:00 +20°C° 0.3 mm 7 mps 747 mmHg 73%
14:00 +20°C° 0.3 mm 6 mps 748 mmHg 72%
15:00 +20°C° 0.3 mm 5 mps 748 mmHg 70%
16:00 +19°C° 0 mm 5 mps 748 mmHg 69%
17:00 +19°C° 0 mm 4 mps 748 mmHg 68%
18:00 +18°C° 0 mm 4 mps 748 mmHg 66%
19:00 +17°C° 0 mm 3 mps 748 mmHg 69%
20:00 +16°C° 0 mm 3 mps 748 mmHg 72%
21:00 +15°C° 0 mm 2 mps 749 mmHg 75%
22:00 +15°C° 0 mm 2 mps 749 mmHg 79%
23:00 +14°C° 0 mm 2 mps 749 mmHg 83%

30 July, Friday

Time Temperature Precipitation Wind Pressure Humidity
00:00 +13°C° 0 mm 2 mps 749 mmHg 87%
01:00 +13°C° 0 mm 2 mps 749 mmHg 88%
02:00 +13°C° 0 mm 2 mps 749 mmHg 89%
03:00 +13°C° 0 mm 2 mps 749 mmHg 90%
04:00 +13°C° 0 mm 2 mps 749 mmHg 89%
05:00 +14°C° 0 mm 2 mps 749 mmHg 88%
06:00 +14°C° 0 mm 2 mps 749 mmHg 87%
07:00 +14°C° 0 mm 3 mps 749 mmHg 79%
08:00 +17°C° 0 mm 3 mps 749 mmHg 71%
09:00 +18°C° 0 mm 4 mps 749 mmHg 63%
10:00 +19°C° 0 mm 4 mps 749 mmHg 62%
11:00 +19°C° 0 mm 4 mps 749 mmHg 61%
12:00 +19°C° 0 mm 4 mps 748 mmHg 61%
13:00 +18°C° 0.1 mm 3 mps 748 mmHg 65%
14:00 +18°C° 0.1 mm 3 mps 748 mmHg 70%
15:00 +17°C° 0.1 mm 3 mps 748 mmHg 75%
16:00 +16°C° 0.7 mm 2 mps 747 mmHg 80%
17:00 +16°C° 0.7 mm 2 mps 747 mmHg 85%
18:00 +15°C° 0.7 mm 1 mps 747 mmHg 91%
19:00 +15°C° 0.7 mm 2 mps 746 mmHg 92%
20:00 +14°C° 0.7 mm 3 mps 746 mmHg 93%
21:00 +14°C° 0.7 mm 4 mps 745 mmHg 94%
22:00 +14°C° 1.3 mm 4 mps 745 mmHg 95%
23:00 +14°C° 1.3 mm 4 mps 745 mmHg 96%
Show more